622  
ASUS42 KCAE 221710  
RWRCAE  
REGIONAL WEATHER ROUNDUP  
NATIONAL WEATHER SERVICE COLUMBIA SC  
100 PM EDT THU APR 22 2021  
 
NOTE: "FAIR" INDICATES FEW OR NO CLOUDS BELOW 12,000 FEET WITH NO  
SIGNIFICANT WEATHER AND/OR S TO VISIBILITY
.  
 
NOT ALL STATIONS ARE QUALITY CONTROLLED BY THE NATIONAL  
WEATHER SERVICE. USE DATA WITH CAUTION...ESPECIALLY  
DEWPOINT OBSERVATIONS.  
 
SCZ001>059-115-116-135>137-GAZ040-063>065-077-221800-   
..UPSTATE SOUTH CAROLINA
 
 
 
CITY SKY/WX TMP DP RH WIND PRES REMARKS
 
LIBERTY SUNNY 56 22 26 N6 30.17F  
SPARTANBURG SUNNY 54 21 28 NW8G17 30.18F  
GREER NOT AVBL  
ROCK HILL SUNNY 55 24 30 NW6G18 30.18F  
CHESTER SUNNY 54 21 28 NW9 30.19F  
LAURENS SUNNY 54 23 30 NW5 30.19F  
 
   
..CENTRAL SOUTH CAROLINA
 
 
 
CITY SKY/WX TMP DP RH WIND PRES REMARKS
 
COLUMBIA APT SUNNY 57 21 24 VRB3 30.19F  
COLUMBIA OWENS SUNNY 56 18 22 VRB3 30.20F  
MCENTIRE ANGB SUNNY 60 16 18 N13 30.18F  
ORANGEBURG SUNNY 58 19 22 NE3 30.20F  
SUMTER SHAW SUNNY 58 19 21 CALM 30.18F  
NEWBERRY SUNNY 55 19 24 CALM 30.22F  
AIKEN FAIR 57 18 21 NW8 30.22F  
BARNWELL FAIR 57 16 19 VRB5 30.21F  
MANNING FAIR 55 19 24 NW9G20 30.19F  
CAMDEN FAIR 57 18 21 NW10 30.19F  
LANCASTER N/A 55 21 26 W8 30.18F  
WINNSBORO SUNNY 55 23 28 NW8 30.19F  
 
   
..EASTERN AND COASTAL SOUTH CAROLINA
 
 
 
CITY SKY/WX TMP DP RH WIND PRES REMARKS
 
MYRTLE BEACH SUNNY 56 23 27 W9 30.17F  
N MYRTLE BCH SUNNY 57 22 25 N7 30.15F  
CONWAY FAIR 55 23 28 NW6 30.17F  
MARION FAIR 55 21 26 NW6G18 30.17F  
HARTSVILLE FAIR 57 16 19 VRB6G13 30.17F  
FLORENCE SUNNY 57 18 21 NW10G18 30.17F  
DARLINGTON SUNNY 58 19 22 W8 30.18F  
CHARLESTON APT SUNNY 58 23 26 N12 30.19F  
MOUNT PLEASANT FAIR 57 21 24 CALM 30.19S  
WALTERBORO SUNNY 55 21 26 E5 30.21F  
BEAUFORT MOSUNNY 59 25 27 VRB7 30.20F  
HILTON HEAD SUNNY 57 23 26 NE12 30.22F  
 
   
..EASTERN GEORGIA
 
 
 
CITY SKY/WX TMP DP RH WIND PRES REMARKS
 
AUGUSTA BUSH F SUNNY 60 18 19 VRB6 30.21F  
THOMSON SUNNY 57 18 21 CALM 30.22F  
WASHINGTON FAIR 55 21 26 CALM 30.21F  
CLAXTON FAIR 60 19 20 NE7 30.23S  
SYLVANIA SUNNY 58 17 20 NE7 30.22F  
STATESBORO MOSUNNY 57 17 20 E5 30.22F  
SAVANNAH MOSUNNY 59 23 25 N6 30.22F  
 
   
..SOUTHERN NORTH CAROLINA
 
 
 
CITY SKY/WX TMP DP RH WIND PRES REMARKS
 
CHARLOTTE PTSUNNY 56 23 27 NW13G20 30.18F  
MONROE SUNNY 57 22 25 NW7G16 30.16F  
WADESBORO SUNNY 55 17 23 NW5 30.17F  
ROCKINGHAM SUNNY 55 21 26 W10G17 30.16F  
RUTHERFORDTON MOSUNNY 52 21 30 S3 30.16F  
ASHEVILLE SUNNY 51 17 26 N15G23 30.14F  
 

 
 
 
CLICK HERE TO GO TO PREVIOUS BULLETINS.

The Nexlab SC Page
The Nexlab GA Page Main Text Page